| time (UTC) | temp C | wind direction | speed KPH | gust KPH | rain 1hr cm | rain 24hr cm | rain mn cm | humidity % | barometer mb |
| 20260504034641 | 12 | 321 | 0.0 | 0.0 | 0.00 | 0.00 | 0.00 | 85 | 1017.7 |
| 20260504033141 | 12 | 321 | 0.0 | 0.0 | 0.00 | 0.00 | 0.00 | 84 | 1017.7 |
| 20260504030141 | 12 | 321 | 0.0 | 0.0 | 0.00 | 0.00 | 0.00 | 83 | 1017.9 |
| 20260504024640 | 13 | 321 | 0.0 | 0.0 | 0.00 | 0.00 | 0.00 | 81 | 1017.8 |
| 20260504023140 | 13 | 321 | 0.0 | 0.0 | 0.00 | 0.00 | 0.00 | 81 | 1017.7 |
| 20260504021640 | 13 | 321 | 0.0 | 0.0 | 0.00 | 0.00 | 0.00 | 78 | 1017.5 |
| 20260504020140 | 14 | 321 | 0.0 | 0.0 | 0.00 | 0.00 | 0.00 | 76 | 1017.3 |
| 20260504014639 | 15 | 321 | 0.0 | 0.0 | 0.00 | 0.00 | 0.00 | 74 | 1017.2 |
| 20260504013139 | 15 | 321 | 0.0 | 0.0 | 0.00 | 0.00 | 0.00 | 72 | 1017.0 |
| 20260504011639 | 16 | 321 | 0.0 | 0.0 | 0.00 | 0.00 | 0.00 | 68 | 1016.9 |
| 20260504010139 | 16 | 321 | 0.0 | 0.0 | 0.00 | 0.00 | 0.00 | 64 | 1016.6 |
| 20260504004638 | 17 | 321 | 0.0 | 0.0 | 0.00 | 0.00 | 0.00 | 60 | 1016.4 |
| 20260504003138 | 18 | 321 | 0.0 | 0.0 | 0.00 | 0.00 | 0.00 | 54 | 1016.3 |
| 20260504000137 | 20 | 317 | 0.0 | 0.0 | 0.00 | 0.00 | 0.00 | 47 | 1016.3 |
| 20260503234637 | 21 | 317 | 0.0 | 0.0 | 0.00 | 0.00 | 0.00 | 43 | 1016.1 |
| 20260503231637 | 22 | 349 | 0.0 | 8.0 | 0.00 | 0.00 | 0.00 | 40 | 1016.3 |
| 20260503230207 | 22 | 333 | 0.0 | 3.2 | 0.00 | 0.00 | 0.00 | 37 | 1016.2 |
| 20260503224636 | 23 | 340 | 0.0 | 0.0 | 0.00 | 0.00 | 0.00 | 36 | 1016.2 |
| 20260503223136 | 23 | 303 | 0.0 | 3.2 | 0.00 | 0.00 | 0.00 | 36 | 1016.1 |
| 20260503221636 | 23 | 302 | 0.0 | 3.2 | 0.00 | 0.00 | 0.00 | 35 | 1016.0 |
| 20260503220205 | 24 | 319 | 0.0 | 0.0 | 0.00 | 0.00 | 0.00 | 35 | 1016.2 |
| 20260503214705 | 25 | 349 | 0.0 | 8.0 | 0.00 | 0.00 | 0.00 | 33 | 1016.2 |
| 20260503213205 | 25 | 136 | 0.0 | 0.0 | 0.00 | 0.00 | 0.00 | 31 | 1016.4 |
| 20260503211705 | 25 | 220 | 0.0 | 0.0 | 0.00 | 0.00 | 0.00 | 30 | 1016.6 |
| 20260503204704 | 25 | 321 | 0.0 | 0.0 | 0.00 | 0.00 | 0.00 | 32 | 1016.8 |
| 20260503203204 | 25 | 335 | 3.2 | 3.2 | 0.00 | 0.00 | 0.00 | 30 | 1017.1 |
| 20260503201704 | 25 | 210 | 0.0 | 3.2 | 0.00 | 0.00 | 0.00 | 32 | 1017.1 |
| 20260503194703 | 25 | 6 | 0.0 | 3.2 | 0.00 | 0.00 | 0.00 | 33 | 1017.8 |
| 20260503191702 | 25 | 16 | 0.0 | 8.0 | 0.00 | 0.00 | 0.00 | 33 | 1018.4 |
| 20260503190202 | 24 | 15 | 3.2 | 4.8 | 0.00 | 0.00 | 0.00 | 34 | 1018.7 |
| 20260503183202 | 24 | 353 | 3.2 | 8.0 | 0.00 | 0.00 | 0.00 | 32 | 1019.1 |
| 20260503181701 | 23 | 348 | 4.8 | 8.0 | 0.00 | 0.00 | 0.00 | 33 | 1019.1 |
| 20260503180201 | 23 | 288 | 0.0 | 3.2 | 0.00 | 0.00 | 0.00 | 33 | 1019.2 |
| 20260503174701 | 23 | 340 | 17.7 | 17.7 | 0.00 | 0.00 | 0.00 | 35 | 1019.2 |
| 20260503170200 | 22 | 75 | 0.0 | 3.2 | 0.00 | 0.00 | 0.00 | 34 | 1019.8 |
| 20260503160159 | 22 | 25 | 9.7 | 14.5 | 0.00 | 0.03 | 0.00 | 37 | 1020.5 |
| 20260503150158 | 20 | 245 | 3.2 | 4.8 | 0.00 | 0.03 | 0.00 | 45 | 1020.8 |
| 20260503140157 | 18 | 282 | 0.0 | 0.0 | 0.00 | 0.03 | 0.00 | 59 | 1020.4 |
| 20260503130156 | 12 | 285 | 0.0 | 0.0 | 0.00 | 0.03 | 0.00 | 84 | 1019.7 |
| 20260503120155 | 6 | 331 | 0.0 | 0.0 | 0.00 | 0.03 | 0.00 | 95 | 1019.5 |
| 20260503100153 | 6 | 347 | 0.0 | 0.0 | 0.00 | 0.58 | 0.00 | 95 | 1018.6 |
| 20260503090153 | 6 | 347 | 0.0 | 0.0 | 0.00 | 0.69 | 0.00 | 95 | 1018.1 |
| 20260503080152 | 7 | 347 | 0.0 | 0.0 | 0.00 | 1.27 | 0.00 | 95 | 1017.6 |
| 20260503060150 | 8 | 347 | 0.0 | 0.0 | 0.00 | 2.46 | 0.00 | 94 | 1017.6 |
| 20260503054650 | 8 | 347 | 0.0 | 0.0 | 0.00 | 2.54 | 0.00 | 94 | 1017.4 |
| 20260503053150 | 8 | 347 | 0.0 | 0.0 | 0.00 | 2.54 | 0.00 | 93 | 1017.4 |
| 20260503051650 | 8 | 347 | 0.0 | 0.0 | 0.00 | 2.54 | 0.00 | 93 | 1017.4 |
| 20260503041650 | 9 | 347 | 0.0 | 0.0 | 0.00 | 2.54 | 2.54 | 91 | 1016.9 |
| 20260503040150 | 10 | 347 | 0.0 | 0.0 | 0.00 | 2.64 | 2.54 | 89 | 1016.9 |